Voltar ao catálogo

STARLINK-11635

AtivoComunicaçõesVLEO
NORAD 63193·PAYLOAD·🇺🇸 United States

Lançado Mar 13, 2025 de Cape Canaveral Space Force Station

Loading…

Próximas Passagens (próximas 24 horas)

TLE

AtualizadoSource: CelesTrak SupGP

Época: Sep 14, 2026, 21:40 UTC

1 63193C 25048L   26257.90326389  .00038674  00000+0  30051-3 0  2579
2 63193  43.0003 259.0856 0001569 256.2477  73.0558 15.70809246    14

Acompanhe STARLINK-11635 em tempo real com AllMySat

Download on the App Store